[[{"header":{"parameterUnit":"m.s-1","parameterCategory":1,"la1":30.2991,"la2":30.254,"lo1":-89.0895,"lo2":-89.0444,"dy":0.0017,"dx":0.0017,"nx":28,"ny":28,"refTime":"2023-09-08T21:00:00:Z","depth":0,"parameterNumber":2,"parameterNumberName":"U-component_of_WINDS"},"data":[0,0,0,0,0,0,0,0,0,0,0,0,0,0,0,0,0,0,0,0,0,0,0,0,0,0,0,0,0,0,0,0,0,0,0,0,0,0,0,0,0,0,0,0,0,0,0,0,0,0,0,0,0,0,0,0,0,0,0.5356,0.5356,0,0.543,0.5431,0.5432,0.5487,0.5487,0.5488,0.5488,0.5567,0.5568,0.557,0,0,0,0,0,0,0,0,0,0,0,0,0,0.5263,0.5264,0.5355,0.5356,0.5357,0.543,0.5431,0.5432,0.5487,0.5487,0.5488,0.5488,0.5566,0.5568,0.557,0,0,0,0,0,0,0,0,0,0,0,0,0,0.5317,0.5265,0.5355,0.5393,0.5397,0.543,0.5431,0.5432,0.5486,0.5487,0.5488,0.5488,0.5565,0.5568,0.557,0.5572,0,0,0.5578,0.5579,0,0,0,0,0,0,0,0,0.5314,0.532,0.5387,0.5391,0.5395,0.545,0.5427,0.5479,0.5486,0.5453,0.5488,0.5489,0.5527,0.5533,0.5546,0.5575,0.5579,0.5578,0.558,0.5581,0.5581,0,0,0,0,0,0,0,0.531,0.5317,0.5385,0.5388,0.5393,0.5408,0.5416,0.5437,0.5485,0.5456,0.546,0.5468,0.553,0.5543,0.5548,0.558,0.5578,0.558,0.5582,0.5583,0.5616,0.5615,0,0,0,0,0,0,0.53,0.5314,0.5383,0.5387,0.5355,0.5409,0.5418,0.5432,0.5485,0.5494,0.5467,0.547,0.5538,0.5545,0.5551,0.5556,0.5581,0.5583,0.5584,0.5617,0.5616,0.5615,0,0,0,0,0,0,0.5298,0.5306,0.538,0.5352,0.5362,0.5409,0.5424,0.5433,0.5446,0.5494,0.5503,0.5471,0.5539,0.5547,0.5566,0.556,0.5584,0.5586,0.5617,0.5616,0.5616,0.5567,0,0,0,0,0,0,0.5295,0.5305,0.5305,0.5351,0.5364,0.5393,0.5424,0.5434,0.545,0.5454,0.55,0.5509,0.554,0.5562,0.5569,0.5564,0.5588,0.5618,0.5617,0.5616,0.5569,0.5565,0.556,0,0,0,0,0,0.5291,0.5288,0.5304,0.5312,0.5365,0.5392,0.5399,0.5435,0.5449,0.545,0.5481,0.5507,0.556,0.5564,0.5571,0.5567,0.5619,0.5617,0.5616,0.5571,0.5566,0.5561,0,0,0,0,0,0,0.524,0.5295,0.5313,0.5325,0.5354,0.5401,0.5404,0.5428,0.5453,0.5457,0.5501,0.5511,0.5525,0.5549,0.5552,0.5572,0.5593,0.5593,0.5556,0.5551,0.5546,0.554,0.559,0,0,0,0,0,0.523,0.5247,0.5295,0.53,0.5314,0.5356,0.5369,0.5395,0.5426,0.5439,0.5471,0.5501,0.5525,0.5539,0.5564,0.5573,0.5585,0.5575,0.557,0.5566,0.5565,0.5573,0.5569,0.5611,0.5611,0.5611,0,0,0.521,0.5242,0.525,0.5291,0.5316,0.5333,0.5366,0.5383,0.5396,0.5442,0.5461,0.5486,0.5523,0.5537,0.5546,0.5557,0.5557,0.5564,0.5561,0.5562,0.5571,0.5567,0.5564,0.561,0.561,0.561,0,0,0.5181,0.5207,0.5215,0.5239,0.5276,0.5305,0.5307,0.5351,0.5369,0.539,0.5424,0.5442,0.5481,0.5506,0.5524,0.5506,0.5531,0.5513,0.5489,0.5496,0.5493,0.549,0.5484,0.5482,0.5513,0.5512,0.5512,0,0.5151,0.5178,0.5216,0.5231,0.5248,0.529,0.5299,0.5321,0.5364,0.5376,0.5388,0.5439,0.5467,0.5488,0.5484,0.5497,0.5501,0.5508,0.549,0.5488,0.5486,0.5481,0.5478,0.551,0.551,0.551,0.5511,0,0.5139,0.5157,0.5159,0.52,0.5218,0.5229,0.527,0.5284,0.5308,0.5336,0.5357,0.5392,0.5424,0.5431,0.5455,0.5456,0.5462,0.5482,0.5503,0.5479,0.5475,0.5473,0.5506,0.5507,0.5508,0.5509,0,0,0.5079,0.5141,0.5141,0.516,0.5205,0.522,0.5235,0.5266,0.5277,0.5306,0.532,0.5353,0.5371,0.5391,0.5419,0.5425,0.5409,0.5444,0.5446,0.5436,0.5413,0.5398,0.5394,0.5427,0.5426,0.5426,0.541,0,0.5057,0.5084,0.5119,0.5135,0.5153,0.5193,0.5206,0.5235,0.5262,0.5282,0.5312,0.5334,0.5357,0.5369,0.5377,0.5409,0.5405,0.5411,0.544,0.5441,0.5429,0.5392,0.5376,0.5359,0.5409,0.5408,0.5408,0,0.5035,0.5061,0.5078,0.5122,0.5131,0.5141,0.5173,0.5192,0.5226,0.5246,0.5268,0.5298,0.5317,0.5336,0.5363,0.5366,0.538,0.5398,0.5398,0.5402,0.5422,0.5395,0.5354,0.5351,0.5406,0.5406,0.5406,0,0.4989,0.5029,0.5045,0.506,0.5112,0.5118,0.514,0.5176,0.5193,0.5221,0.5232,0.5263,0.5279,0.5302,0.534,0.5351,0.5363,0.5385,0.5379,0.5378,0.5379,0.5379,0.534,0.5389,0.5389,0.5389,0.5389,0,0.4961,0.4969,0.5025,0.5034,0.5046,0.5087,0.5098,0.5124,0.5155,0.5171,0.5209,0.5223,0.5272,0.5292,0.5322,0.534,0.5347,0.5363,0.5371,0.536,0.5358,0.5369,0.5371,0.5389,0.5389,0.5389,0.5389,0,0.4911,0.4949,0.4968,0.5016,0.5028,0.5034,0.5076,0.5087,0.5116,0.5136,0.5143,0.5189,0.5215,0.5255,0.5293,0.5314,0.5326,0.5339,0.5314,0.5319,0.531,0.531,0.5277,0.5275,0.5326,0.5325,0.5325,0,0.489,0.4898,0.4946,0.4959,0.498,0.5,0.5018,0.506,0.5076,0.5117,0.5124,0.5153,0.5178,0.5218,0.5256,0.5285,0.5299,0.5286,0.5304,0.5292,0.5299,0.5298,0.5299,0.5281,0.528,0.528,0.5279,0,0.4849,0.4867,0.489,0.492,0.4939,0.4965,0.4992,0.5001,0.5049,0.5066,0.5093,0.5113,0.5152,0.5181,0.5216,0.524,0.5268,0.5273,0.5274,0.5262,0.5247,0.5254,0.5302,0.5274,0.5274,0.5275,0.5275,0.5275,0.4813,0.4822,0.4858,0.4882,0.4907,0.4932,0.4945,0.4976,0.4999,0.5033,0.5057,0.5083,0.5119,0.5169,0.5192,0.5213,0.5225,0.5225,0.5226,0.5225,0.5221,0.5244,0.522,0.522,0.522,0.5221,0.5221,0,0.4774,0.4799,0.4821,0.4858,0.4878,0.4902,0.4934,0.4949,0.4971,0.5002,0.5026,0.5058,0.5086,0.5126,0.5157,0.5167,0.518,0.5174,0.5173,0.5178,0.5208,0.5205,0.5162,0.5162,0.5162,0.5162,0.5162,0.5162,0.4755,0.4772,0.4794,0.4824,0.485,0.4874,0.4891,0.4914,0.4939,0.4972,0.4996,0.5022,0.5057,0.5091,0.5119,0.513,0.514,0.5129,0.5144,0.5171,0.5176,0.5181,0.5178,0.5131,0.513,0.5112,0.5112,0.5112]},{"header":{"parameterUnit":"m.s-1","parameterCategory":1,"la1":30.2991,"la2":30.254,"lo1":-89.0895,"lo2":-89.0444,"dy":0.0017,"dx":0.0017,"nx":28,"ny":28,"refTime":"2023-09-08T21:00:00:Z","depth":0,"parameterNumber":3,"parameterNumberName":"V-component_of_WINDS"},"data":[0,0,0,0,0,0,0,0,0,0,0,0,0,0,0,0,0,0,0,0,0,0,0,0,0,0,0,0,0,0,0,0,0,0,0,0,0,0,0,0,0,0,0,0,0,0,0,0,0,0,0,0,0,0,0,0,0,0,-1.6258,-1.6258,0,-1.6279,-1.6279,-1.6279,-1.6295,-1.6295,-1.6296,-1.6296,-1.6315,-1.6316,-1.6316,0,0,0,0,0,0,0,0,0,0,0,0,0,-1.6234,-1.6234,-1.6258,-1.6258,-1.6259,-1.6279,-1.6279,-1.6279,-1.6295,-1.6295,-1.6296,-1.6296,-1.6315,-1.6316,-1.6316,0,0,0,0,0,0,0,0,0,0,0,0,0,-1.6248,-1.6234,-1.6258,-1.6269,-1.627,-1.6279,-1.6279,-1.6279,-1.6295,-1.6295,-1.6296,-1.6296,-1.6315,-1.6316,-1.6316,-1.6315,0,0,-1.6318,-1.6318,0,0,0,0,0,0,0,0,-1.6247,-1.6249,-1.6267,-1.6268,-1.627,-1.6285,-1.6278,-1.6291,-1.6295,-1.6286,-1.6296,-1.6296,-1.6305,-1.6306,-1.631,-1.6316,-1.6317,-1.6318,-1.6318,-1.6319,-1.6319,0,0,0,0,0,0,0,-1.6246,-1.6248,-1.6266,-1.6267,-1.6269,-1.6273,-1.6276,-1.628,-1.6294,-1.6287,-1.6288,-1.629,-1.6306,-1.6309,-1.631,-1.6317,-1.6318,-1.6319,-1.6319,-1.6319,-1.6327,-1.6327,0,0,0,0,0,0,-1.6244,-1.6247,-1.6266,-1.6267,-1.6259,-1.6274,-1.6276,-1.628,-1.6294,-1.6296,-1.629,-1.6291,-1.6308,-1.631,-1.6311,-1.6313,-1.6319,-1.6319,-1.6319,-1.6327,-1.6327,-1.6327,0,0,0,0,0,0,-1.6243,-1.6245,-1.6265,-1.6257,-1.626,-1.6274,-1.6277,-1.628,-1.6283,-1.6296,-1.6299,-1.6291,-1.6308,-1.631,-1.6315,-1.6314,-1.6319,-1.632,-1.6327,-1.6327,-1.6327,-1.6315,0,0,0,0,0,0,-1.6242,-1.6245,-1.6244,-1.6257,-1.6261,-1.6268,-1.6277,-1.628,-1.6284,-1.6286,-1.6298,-1.63,-1.6309,-1.6314,-1.6315,-1.6314,-1.632,-1.6327,-1.6327,-1.6327,-1.6315,-1.6314,-1.6313,0,0,0,0,0,-1.6241,-1.6238,-1.6244,-1.6246,-1.626,-1.6268,-1.6269,-1.628,-1.6284,-1.6284,-1.6293,-1.63,-1.6313,-1.6314,-1.6316,-1.6315,-1.6327,-1.6327,-1.6327,-1.6316,-1.6314,-1.6313,0,0,0,0,0,0,-1.6223,-1.624,-1.6246,-1.6248,-1.6256,-1.627,-1.627,-1.6277,-1.6284,-1.6285,-1.6298,-1.63,-1.6304,-1.631,-1.631,-1.6317,-1.6322,-1.6322,-1.6312,-1.6311,-1.631,-1.6309,-1.6321,0,0,0,0,0,-1.6219,-1.6224,-1.6239,-1.6239,-1.6243,-1.6256,-1.626,-1.6267,-1.6276,-1.628,-1.6289,-1.6297,-1.6304,-1.6308,-1.6314,-1.6316,-1.632,-1.6317,-1.6316,-1.6315,-1.6315,-1.632,-1.6319,-1.6326,-1.6326,-1.6326,0,0,-1.6211,-1.6222,-1.6223,-1.6236,-1.6243,-1.6249,-1.6259,-1.6263,-1.6268,-1.628,-1.6286,-1.6293,-1.6304,-1.6308,-1.631,-1.6313,-1.6314,-1.6315,-1.6314,-1.6314,-1.6319,-1.6319,-1.6318,-1.6326,-1.6326,-1.6326,0,0,-1.62,-1.6207,-1.621,-1.6218,-1.623,-1.6239,-1.624,-1.6253,-1.6259,-1.6265,-1.6276,-1.6281,-1.6292,-1.63,-1.6305,-1.6301,-1.6308,-1.6303,-1.6297,-1.6301,-1.6301,-1.63,-1.6301,-1.6301,-1.6303,-1.6303,-1.6303,0,-1.6188,-1.6197,-1.621,-1.6215,-1.6221,-1.6234,-1.6238,-1.6245,-1.6258,-1.6262,-1.6265,-1.6281,-1.6288,-1.6296,-1.6296,-1.6299,-1.6301,-1.6301,-1.63,-1.63,-1.6299,-1.63,-1.63,-1.6302,-1.6302,-1.6302,-1.6302,0,-1.6184,-1.619,-1.6191,-1.6205,-1.6211,-1.6215,-1.6229,-1.6234,-1.6242,-1.6251,-1.6258,-1.6269,-1.6279,-1.6281,-1.6288,-1.6291,-1.6293,-1.6298,-1.6303,-1.6298,-1.6299,-1.6299,-1.6301,-1.6301,-1.6301,-1.6302,0,0,-1.616,-1.6184,-1.6184,-1.6192,-1.6207,-1.6213,-1.6218,-1.623,-1.6235,-1.6244,-1.625,-1.626,-1.6266,-1.6272,-1.6281,-1.6284,-1.6283,-1.6289,-1.629,-1.6289,-1.629,-1.6286,-1.6286,-1.6288,-1.6288,-1.6288,-1.6289,0,-1.6152,-1.6164,-1.6177,-1.6184,-1.6191,-1.6205,-1.6211,-1.6222,-1.6231,-1.6239,-1.6249,-1.6257,-1.6263,-1.6267,-1.6272,-1.6282,-1.6284,-1.6282,-1.6295,-1.6295,-1.6293,-1.6286,-1.6282,-1.6282,-1.6289,-1.6289,-1.6289,0,-1.6144,-1.6155,-1.6164,-1.6182,-1.6186,-1.619,-1.6203,-1.621,-1.6224,-1.623,-1.6239,-1.6249,-1.6257,-1.6261,-1.6274,-1.6273,-1.6279,-1.6285,-1.6286,-1.6288,-1.6292,-1.6289,-1.6282,-1.6283,-1.629,-1.629,-1.629,0,-1.6129,-1.6145,-1.6153,-1.616,-1.618,-1.6184,-1.6193,-1.6206,-1.6213,-1.6225,-1.623,-1.6241,-1.6248,-1.6257,-1.6271,-1.6272,-1.6282,-1.6287,-1.6289,-1.6289,-1.629,-1.629,-1.6286,-1.6293,-1.6293,-1.6293,-1.6293,0,-1.612,-1.6125,-1.6147,-1.6152,-1.6159,-1.6174,-1.6181,-1.6191,-1.6204,-1.6211,-1.6224,-1.6231,-1.6247,-1.6257,-1.6267,-1.6277,-1.6279,-1.6286,-1.6289,-1.6285,-1.6285,-1.629,-1.6291,-1.6293,-1.6293,-1.6293,-1.6293,0,-1.6103,-1.6118,-1.6128,-1.6148,-1.6154,-1.6158,-1.6175,-1.6181,-1.6192,-1.6202,-1.6206,-1.6223,-1.6235,-1.6249,-1.6265,-1.6272,-1.6282,-1.6285,-1.6278,-1.628,-1.6281,-1.6281,-1.628,-1.6282,-1.6287,-1.6286,-1.6286,0,-1.6097,-1.6101,-1.6123,-1.613,-1.6139,-1.6149,-1.6157,-1.6173,-1.6181,-1.6198,-1.6203,-1.6216,-1.6228,-1.6247,-1.6261,-1.6274,-1.6278,-1.6277,-1.628,-1.6278,-1.628,-1.628,-1.6282,-1.6276,-1.6276,-1.6276,-1.6276,0,-1.6085,-1.6093,-1.6104,-1.6119,-1.6129,-1.6141,-1.6153,-1.6158,-1.6177,-1.6185,-1.6199,-1.6208,-1.6226,-1.624,-1.6255,-1.6265,-1.6274,-1.6275,-1.6277,-1.6273,-1.627,-1.6273,-1.6277,-1.6275,-1.6275,-1.6275,-1.6275,-1.6275,-1.6074,-1.608,-1.6097,-1.611,-1.6122,-1.6134,-1.6142,-1.6155,-1.6167,-1.6183,-1.6192,-1.6206,-1.6222,-1.6244,-1.6253,-1.6265,-1.6267,-1.6269,-1.6269,-1.627,-1.627,-1.6267,-1.6267,-1.6267,-1.6267,-1.6267,-1.6267,0,-1.6064,-1.6077,-1.6089,-1.6107,-1.6118,-1.6127,-1.6142,-1.6151,-1.6163,-1.6177,-1.6189,-1.6206,-1.622,-1.6236,-1.6252,-1.6258,-1.6263,-1.6261,-1.6261,-1.6264,-1.6265,-1.6263,-1.6257,-1.6257,-1.6257,-1.6257,-1.6257,-1.6257,-1.6061,-1.6072,-1.6083,-1.6101,-1.6113,-1.6127,-1.6136,-1.6148,-1.616,-1.6178,-1.619,-1.6201,-1.6217,-1.6234,-1.6248,-1.6252,-1.6258,-1.6256,-1.6262,-1.6263,-1.6264,-1.6264,-1.6263,-1.6257,-1.6257,-1.626,-1.626,-1.626]}]]